Flag for U.S.A. Weather past 2 weeks in Sunnyvale, California, U.S.A.

Now
58 °F

Broken clouds.


Feels Like: 58 °F
Forecast: 55 / 63 °F
Wind: No wind

Location: Moffett Field

Current Time: Dec 22, 2014 at 9:22:55 AM

Latest Report: Dec 22, 2014 at 8:56 AM


Visibility: 10 mi

Pressure: 30.29 "Hg

Humidity: 90%

Dew point: 55 °F

Location of SunnyvaleLocation

Historic Weather in Sunnyvale — Graph

°F

Sunnyvale temperature yesterday

Maximum temperature yesterday: 64 °F (at 2:56 PM)
Minimum temperature yesterday: 56 °F (at 5:56 AM)
Average temperature yesterday: 60 °F

Past Weeks' High & Low Weather Summary

 TemperatureHumidityPressure
High69 °F (Dec 8, 2:56 PM)100% (Dec 7, 7:56 AM)30.34 "Hg (Dec 7, 7:56 AM)
Low43 °F (Dec 13, 6:56 AM)53% (Dec 8, 2:56 PM)29.57 "Hg (Dec 11, 7:56 AM)
Average56 °F85%30.06 "Hg
* Reported Dec 7 7:56 AM — Dec 22 7:56 AM, Sunnyvale, Weather by CustomWeather, © 2014

Note: Actual official high and low records may vary slightly from our data, if they occured in-between our weather recording intervals... More about our weather records

Advertising

Sunnyvale weather history for previous 24 hours

 ConditionsComfort  
Time TempWeatherWind HumidityBarometerVisibility
7:56 AM
Dec 22
55 °FPassing clouds.No wind96%30.28 "Hg10 mi
6:56 AM57 °FFog.No wind96%30.28 "Hg6 mi
5:56 AM57 °FFog.No wind93%30.27 "Hg1 mi
4:56 AM55 °FPassing clouds.3 mph93%30.28 "Hg10 mi
3:56 AM58 °FOvercast.No wind90%30.27 "Hg10 mi
2:56 AM59 °FOvercast.No wind87%30.29 "Hg10 mi
1:56 AM59 °FOvercast.No wind87%30.29 "Hg10 mi
12:56 AM59 °FOvercast.3 mph87%30.29 "Hg10 mi
11:56 PM
Dec 21
59 °FOvercast.No wind90%30.30 "Hg10 mi
10:56 PM59 °FOvercast.No wind90%30.31 "Hg10 mi
9:56 PM59 °FMostly cloudy.5 mph93%30.31 "Hg10 mi
8:56 PM59 °FOvercast.3 mph93%30.31 "Hg10 mi
7:56 PM59 °FPassing clouds.6 mph90%30.30 "Hg10 mi
6:56 PM59 °FPassing clouds.6 mph90%30.30 "Hg10 mi
5:56 PM61 °FOvercast.9 mph87%30.30 "Hg10 mi
5:03 PM61 °FPassing clouds.7 mph88%30.29 "Hg10 mi
4:56 PM61 °FPassing clouds.9 mph87%30.29 "Hg10 mi
3:56 PM63 °FScattered clouds.8 mph81%30.28 "Hg10 mi
2:56 PM64 °FBroken clouds.6 mph81%30.28 "Hg10 mi
1:56 PM63 °FMostly cloudy.12 mph84%30.29 "Hg10 mi
12:56 PM62 °FOvercast.8 mph86%30.29 "Hg10 mi
11:55 AM61 °FMostly cloudy.5 mph87%30.31 "Hg10 mi
10:56 AM61 °FMostly cloudy.3 mph87%30.32 "Hg8 mi
9:56 AM61 °FOvercast.No wind81%30.34 "Hg10 mi
Weather by CustomWeather, © 2014

See weather overviewHow to use our weather pages